Regional Weather Roundup
Issued by NWS Sioux Falls, SD

Home | Current Version | Previous Version | Text Only | Print | Product List | Glossary Off
Versions: 1 2 3 4 5 6 7 8 9 10 11 12 13 14 15 16 17 18 19 20 21 22 23 24 25 26 27 28 29 30 31 32 33 34 35 36 37 38 39 40 41 42 43 44 45 46 47 48 49 50

000
ASUS43 KFSD 300302
RWRFSD

WEATHER ROUNDUP FOR SE SOUTH DAKOTA/SW MINNESOTA/NW IOWA
NATIONAL WEATHER SERVICE SIOUX FALLS SD
1000 PM CDT FRI MAY 29 2015

NOTE: "FAIR" INDICATES FEW OR NO CLOUDS BELOW 12,000 FEET WITH NO
SIGNIFICANT WEATHER AND OR OBSTRUCTIONS TO VISIBILITY.


SDZ038>040-050-052>070-300400-
SOUTHEAST SOUTH DAKOTA

CITY           SKY/WX    TMP DP  RH WIND       PRES   REMARKS
BROOKINGS      CLOUDY    46  41  81 N14       30.16S
CHAMBERLAIN    MOCLDY    47  44  87 N3        30.22S
HURON          MOCLDY    49  42  77 N10       30.20R
MADISON        FAIR      46  46 100 N17       30.15R
MITCHELL       CLOUDY    51  44  77 N12       30.19R
SIOUX FALLS    CLOUDY    49  43  80 N17       30.15R
WINNER         FAIR      47  38  71 N9        30.23S
YANKTON        MOCLDY    52  43  71 NW16G23   30.15R
$$

MNZ071-072-080-081-089-090-097-098-300400-
SOUTHWEST MINNESOTA

CITY           SKY/WX    TMP DP  RH WIND       PRES   REMARKS
FAIRMONT       CLOUDY    54  48  82 N22G28    30.02R
JACKSON        CLOUDY    52  50  93 N17G28    30.07R
LUVERNE        CLOUDY    50  43  76 N15G25    30.13R
MARSHALL       MOCLDY    48  41  76 N15       30.12R
MONTEVIDEO     CLOUDY    50  46  87 N12G17    30.14R
PIPESTONE      CLOUDY    48  43  81 N14G20    30.12R
REDWOOD FALLS  CLOUDY    54  48  80 N14       30.10R
TRACY          CLOUDY    50  47  90 NW17G25   30.11R
WINDOM         CLOUDY    50  48  93 NW21G29   30.08R
WORTHINGTON    CLOUDY    48  43  81 N22       30.09R
$$

IAZ001>003-012>014-020>022-031-032-NEZ013-014-SDZ071-300400-
NORTHWEST IOWA

CITY           SKY/WX    TMP DP  RH WIND       PRES   REMARKS
DENISON        CLOUDY    55  55 100 N20       30.02R
ESTHERVILLE    LGT RAIN  52  51  97 N28G35    30.04R
LE MARS        CLOUDY    52  48  87 N15G24    30.11R
SIOUX CITY     CLOUDY    54  48  80 N17G28    30.10R
SPENCER        CLOUDY    52  48  86 N22G32    30.06R
$$

ABBREVIATIONS USED IN REMARKS
   TC - TEMPERATURE IN CELSIUS
  WCI - WIND CHILL INDEX
   HX - HEAT INDEX
  VSB - VISIBILITY



USA.gov is the U.S. government's official web portal to all federal, state and local government web resources and services.